Regional Weather Roundup
Issued by NWS Cleveland, OH

Home | Current Version | Previous Version | Text Only | Print | Product List | Glossary On
Versions: 1 2 3 4 5 6 7 8 9 10 11 12 13 14 15 16 17 18 19 20 21 22 23 24 25 26 27 28 29 30 31 32 33 34 35 36 37 38 39 40 41 42 43 44 45 46 47 48 49 50
000
ASUS41 KCLE 271502
RWRCLE
OHIO REGIONAL WEATHER ROUNDUP
NATIONAL WEATHER SERVICE CLEVELAND, OH
1000 AM EST TUE JAN 27 2015

NOTE: "FAIR" INDICATES FEW OR NO CLOUDS BELOW 12,000 FEET WITH NO
SIGNIFICANT WEATHER AND/OR OBSTRUCTIONS TO VISIBILITY.

OHZ001>008-015>018-024>027-034-035-043-044-271600-
   NORTHWEST OHIO

CITY           SKY/WX    TMP DP  RH WIND       PRES   REMARKS
DEFIANCE       MOSUNNY   20  12  71 NE8       30.12R WCI  10
FINDLAY        SUNNY     16  10  77 NE9       30.07R WCI   4
TOLEDO EXPRESS SUNNY     18  11  74 N7        30.10R WCI   9
TOLEDO EXEC    SUNNY     18  11  74 N3        30.10R
LIMA           MOSUNNY   14  10  84 NE5       30.06R FOG     WCI   6
$$

OHZ009>014-019>023-028>033-038-089-271600-
   NORTHEAST OHIO

CITY           SKY/WX    TMP DP  RH WIND       PRES   REMARKS
CLE-HOPKINS    LGT SNOW  19  14  81 N13       30.06R WCI   6
CLE-LAKEFRONT  LGT SNOW  19  13  77 N10       30.05R WCI   7
CUY CO. ARPT   LGT SNOW  19  16  86 N9        30.02R WCI   9
LORAIN-ELYRIA  LGT SNOW  18  14  84 N12       30.05R FOG     WCI   5
ASHTABULA      FLURRIES  18  13  80 N9        30.00R WCI   7
AKRON-CANTON   PTSUNNY   19  11  70 N12G24    29.97R WCI   7
WOOSTER        FLURRIES  18  12  77 N14       30.00R WCI   4
MANSFIELD      LGT SNOW  14  11  87 NW10      30.01R FOG     WCI   1
YOUNGSTOWN     FLURRIES  18  13  80 N10       29.95R WCI   6
$$

OHZ042-051>053-060>062-070>072-077>081-271600-
  SOUTHWEST OHIO

CITY           SKY/WX    TMP DP  RH WIND       PRES   REMARKS
CINC-COVINGTON CLOUDY    21  13  71 NE8       30.05R WCI  11
CINC-LUNKEN    PTSUNNY   20  13  74 NE5       30.10R WCI  13
HAMILTON       PTSUNNY   20  12  71 E5        30.09R WCI  13
DAYTON         PTSUNNY   18  12  77 CALM      30.06R
WRIGHT-PAT AFB MOSUNNY   16  10  80 N5        30.08R WCI   8
DAYTON GENERAL CLOUDY    18  12  77 NE5       30.05R WCI  11
WILMINGTON     MOSUNNY   17  10  74 N6        30.04R WCI   9
$$

OHZ036-037-039>041-045>050-054>059-063>069-073>076-082>088-271600-
  CENTRAL AND SOUTHEAST OHIO

CITY           SKY/WX    TMP DP  RH WIND       PRES   REMARKS
COLUMBUS       MOSUNNY   15  10  80 NW5       30.05R WCI   8
OSU AIRPORT    MOSUNNY   13  10  88 NW8       30.05R FOG     WCI   2
BOLTON FIELD   MOSUNNY   12   9  85 NW7       30.05R WCI   2
RICKENBACK AFB NOT AVBL
NEWARK         PTSUNNY   17  12  80 VRB5      30.02R WCI  10
MARION         LGT SNOW  10   6  84 NW7       30.06R FOG     WCI  -1
LANCASTER      SUNNY     15  11  83 N5        30.03R WCI   8
ZANESVILLE     LGT SNOW  17  11  77 NW7       30.01R WCI   8
NEW PHILLY     LGT SNOW  20  14  77 NW6       29.99S WCI  12
$$



USA.gov is the U.S. government's official web portal to all federal, state and local government web resources and services.